,,PA_Meas_PMT16A,,PR_Meas_QMR101_102,,RH_Meas_QMH101,,SR_Meas_QMS101,,TA_Meas_QMH101,,GenWind,,GenWind,
time,status,PA,status,PR,status,RH,status,SR,status,TA,status,DirAvg,status,SpdAvg,
2011-02-04, 00:00:04,VALID,918.306,VALID,0,VALID,94.9115,VALID,0,VALID,20.2489,VALID,247,VALID,0.546484,
2011-02-04, 00:01:04,VALID,918.273,VALID,0,VALID,94.8887,VALID,0,VALID,20.1888,VALID,247,VALID,0.441406,
2011-02-04, 00:02:04,VALID,918.263,VALID,0,VALID,94.9115,VALID,0,VALID,20.2114,VALID,247,VALID,0.389062,
2011-02-04, 00:03:04,VALID,918.268,VALID,0,VALID,94.942,VALID,0,VALID,20.1934,VALID,247,VALID,0.159375,
2011-02-04, 00:04:04,VALID,918.232,VALID,0,VALID,95.1402,VALID,0,VALID,20.1483,VALID,247,VALID,0,
2011-02-04, 00:05:04,VALID,918.221,VALID,0,VALID,95.1174,VALID,0,VALID,20.1708,VALID,247,VALID,0,
2011-02-04, 00:06:04,VALID,918.237,VALID,0,VALID,95.2622,VALID,0,VALID,20.1693,VALID,247,VALID,0.282813,
2011-02-04, 00:07:04,VALID,918.185,VALID,0,VALID,95.3308,VALID,0,VALID,20.2129,VALID,247,VALID,0.3125,
2011-02-04, 00:08:04,VALID,918.189,VALID,0,VALID,95.3842,VALID,0,VALID,20.1077,VALID,247,VALID,0.413672,
2011-02-04, 00:09:04,VALID,918.165,VALID,0,VALID,95.3079,VALID,0,VALID,20.1903,VALID,247,VALID,0.571875,
2011-02-04, 00:10:04,VALID,918.173,VALID,0,VALID,95.2775,VALID,0,VALID,20.1724,VALID,247,VALID,0.623047,
2011-02-04, 00:11:04,VALID,918.133,VALID,0,VALID,95.3842,VALID,0,VALID,20.1318,VALID,247,VALID,0.697266,
2011-02-04, 00:12:04,VALID,918.135,VALID,0,VALID,95.468,VALID,0,VALID,20.1303,VALID,247,VALID,0.579297,
2011-02-04, 00:13:04,VALID,918.124,VALID,0,VALID,95.5671,VALID,0,VALID,20.1318,VALID,247,VALID,0.402734,
2011-02-04, 00:14:04,VALID,918.121,VALID,0,VALID,95.6586,VALID,0,VALID,20.1318,VALID,247,VALID,0.503906,
2011-02-04, 00:15:04,VALID,918.104,VALID,0,VALID,95.7349,VALID,0,VALID,20.1529,VALID,247,VALID,0.344531,
2011-02-04, 00:16:04,VALID,918.073,VALID,0,VALID,95.773,VALID,0,VALID,20.1724,VALID,247,VALID,0.51875,
2011-02-04, 00:17:04,VALID,918.057,VALID,0,VALID,95.8263,VALID,0,VALID,20.1513,VALID,247,VALID,0.594531,
2011-02-04, 00:18:04,VALID,918.038,VALID,0,VALID,95.8721,VALID,0,VALID,20.1334,VALID,247,VALID,0.438672,
2011-02-04, 00:19:04,VALID,918.018,VALID,0,VALID,95.9102,VALID,0,VALID,20.1949,VALID,247,VALID,0.305469,
2011-02-04, 00:20:04,VALID,918.022,VALID,0,VALID,95.9712,VALID,0,VALID,20.1544,VALID,247,VALID,0.196875,
2011-02-04, 00:21:04,VALID,918.017,VALID,0,VALID,96.0093,VALID,0,VALID,20.1108,VALID,247,VALID,0.2625,
2011-02-04, 00:22:04,VALID,918.024,VALID,0,VALID,96.1008,VALID,0,VALID,20.1513,VALID,247,VALID,0.0644531,
2011-02-04, 00:23:04,VALID,918.029,VALID,0,VALID,96.1618,VALID,0,VALID,20.1498,VALID,247,VALID,0,
2011-02-04, 00:24:04,VALID,918.026,VALID,0,VALID,96.2075,VALID,0,VALID,20.2098,VALID,247,VALID,0,
2011-02-04, 00:25:04,VALID,917.994,VALID,0,VALID,96.2304,VALID,0,VALID,20.1467,VALID,247,VALID,0,
2011-02-04, 00:26:04,VALID,918.011,VALID,0,VALID,96.2304,VALID,0,VALID,20.2925,VALID,247,VALID,0.107422,
2011-02-04, 00:27:04,VALID,918.006,VALID,0,VALID,96.1999,VALID,0,VALID,20.2956,VALID,247,VALID,0,
2011-02-04, 00:28:04,VALID,917.956,VALID,0.2,VALID,96.2456,VALID,0,VALID,20.2114,VALID,247,VALID,0,
2011-02-04, 00:29:04,VALID,917.973,VALID,0,VALID,96.2837,VALID,0,VALID,20.1678,VALID,247,VALID,0,
2011-02-04, 00:30:04,VALID,917.939,VALID,0,VALID,96.2685,VALID,0,VALID,20.2519,VALID,247,VALID,0.154687,
2011-02-04, 00:31:04,VALID,917.957,VALID,0,VALID,96.238,VALID,0,VALID,20.2083,VALID,247,VALID,0.180078,
2011-02-04, 00:32:04,VALID,917.95,VALID,0,VALID,96.238,VALID,0,VALID,20.1498,VALID,246,VALID,0.160938,
2011-02-04, 00:33:04,VALID,917.939,VALID,0,VALID,96.2533,VALID,0,VALID,20.1483,VALID,247,VALID,0.395703,
2011-02-04, 00:34:04,VALID,917.914,VALID,0,VALID,96.2456,VALID,0,VALID,20.2535,VALID,247,VALID,0.241406,
2011-02-04, 00:35:04,VALID,917.919,VALID,0,VALID,96.2304,VALID,0,VALID,20.1513,VALID,247,VALID,0.339063,
2011-02-04, 00:36:04,VALID,917.915,VALID,0,VALID,96.2533,VALID,0,VALID,20.1678,VALID,247,VALID,0.429688,
2011-02-04, 00:37:04,VALID,917.901,VALID,0,VALID,96.238,VALID,0,VALID,20.1934,VALID,247,VALID,0.246875,
2011-02-04, 00:38:04,VALID,917.913,VALID,0,VALID,96.2609,VALID,0,VALID,20.1288,VALID,247,VALID,0,
2011-02-04, 00:39:04,VALID,917.9,VALID,0,VALID,96.2914,VALID,0,VALID,20.1903,VALID,247,VALID,0,
2011-02-04, 00:40:04,VALID,917.927,VALID,0,VALID,96.2456,VALID,0,VALID,20.1708,VALID,247,VALID,0,
2011-02-04, 00:41:04,VALID,917.907,VALID,0,VALID,96.2685,VALID,0,VALID,20.1708,VALID,247,VALID,0,
2011-02-04, 00:42:04,VALID,917.9,VALID,0,VALID,96.3066,VALID,0,VALID,20.1903,VALID,246,VALID,0.410937,
2011-02-04, 00:43:04,VALID,917.911,VALID,0,VALID,96.3066,VALID,0,VALID,20.2519,VALID,247,VALID,0.748438,
2011-02-04, 00:44:04,VALID,917.896,VALID,0,VALID,96.238,VALID,0,VALID,20.1513,VALID,247,VALID,0.558203,
2011-02-04, 00:45:04,VALID,917.894,VALID,0,VALID,96.2151,VALID,0,VALID,20.1303,VALID,247,VALID,0.635547,
2011-02-04, 00:46:04,VALID,917.915,VALID,0,VALID,96.2609,VALID,0,VALID,20.1093,VALID,247,VALID,0.330469,
2011-02-04, 00:47:04,VALID,917.891,VALID,0,VALID,96.2761,VALID,0,VALID,20.1318,VALID,247,VALID,0.275,
2011-02-04, 00:48:04,VALID,917.877,VALID,0,VALID,96.2914,VALID,0,VALID,20.1303,VALID,247,VALID,0.492578,
2011-02-04, 00:49:04,VALID,917.861,VALID,0,VALID,96.3371,VALID,0,VALID,20.1108,VALID,247,VALID,0.36875,
2011-02-04, 00:50:04,VALID,917.856,VALID,0,VALID,96.3676,VALID,0,VALID,20.1108,VALID,247,VALID,0.308594,
2011-02-04, 00:51:04,VALID,917.835,VALID,0,VALID,96.4057,VALID,0,VALID,20.1498,VALID,247,VALID,0.294141,
2011-02-04, 00:52:04,VALID,917.847,VALID,0,VALID,96.4133,VALID,0,VALID,20.1708,VALID,247,VALID,0.539844,
2011-02-04, 00:53:04,VALID,917.813,VALID,0,VALID,96.4286,VALID,0,VALID,20.1498,VALID,247,VALID,0.191406,
2011-02-04, 00:54:04,VALID,917.785,VALID,0,VALID,96.4438,VALID,0,VALID,20.1513,VALID,247,VALID,0.310156,
2011-02-04, 00:55:04,VALID,917.812,VALID,0,VALID,96.4515,VALID,0,VALID,20.1303,VALID,247,VALID,0.284766,
2011-02-04, 00:56:04,VALID,917.765,VALID,0,VALID,96.421,VALID,0,VALID,20.0898,VALID,247,VALID,0.743359,
2011-02-04, 00:57:04,VALID,917.787,VALID,0,VALID,96.4362,VALID,0,VALID,20.0493,VALID,247,VALID,0.437891,
2011-02-04, 00:58:04,VALID,917.769,VALID,0,VALID,96.4896,VALID,0,VALID,20.1108,VALID,247,VALID,0.451953,
2011-02-04, 00:59:04,VALID,917.738,VALID,0,VALID,96.5201,VALID,0,VALID,20.0703,VALID,247,VALID,0.401953,
2011-02-04, 01:00:04,VALID,917.755,VALID,0,VALID,96.4819,VALID,0,VALID,20.0298,VALID,247,VALID,0.539063,
2011-02-04, 01:01:04,VALID,917.717,VALID,0,VALID,96.5277,VALID,0,VALID,20.1139,VALID,247,VALID,0.628906,
2011-02-04, 01:02:04,VALID,917.708,VALID,0,VALID,96.5201,VALID,0,VALID,20.0523,VALID,247,VALID,0.261328,
2011-02-04, 01:03:04,VALID,917.701,VALID,0,VALID,96.6039,VALID,0,VALID,20.1529,VALID,247,VALID,0,
2011-02-04, 01:04:04,VALID,917.708,VALID,0,VALID,96.5506,VALID,0,VALID,20.1123,VALID,247,VALID,0.166406,
2011-02-04, 01:05:04,VALID,917.704,VALID,0,VALID,96.5429,VALID,0,VALID,20.0928,VALID,247,VALID,0.0277344,
2011-02-04, 01:06:04,VALID,917.727,VALID,0,VALID,96.5582,VALID,0,VALID,20.0523,VALID,247,VALID,0,
2011-02-04, 01:07:04,VALID,917.752,VALID,0,VALID,96.5734,VALID,0,VALID,20.0523,VALID,247,VALID,0,
2011-02-04, 01:08:04,VALID,917.703,VALID,0,VALID,96.5963,VALID,0,VALID,20.0718,VALID,247,VALID,0,
2011-02-04, 01:09:04,VALID,917.69,VALID,0,VALID,96.6115,VALID,0,VALID,20.0928,VALID,247,VALID,0,
2011-02-04, 01:10:04,VALID,917.696,VALID,0,VALID,96.5887,VALID,0,VALID,20.0718,VALID,247,VALID,0,
2011-02-04, 01:11:04,VALID,917.669,VALID,0,VALID,96.6497,VALID,0,VALID,20.1123,VALID,247,VALID,0.266797,
2011-02-04, 01:12:04,VALID,917.644,VALID,0,VALID,96.5811,VALID,0,VALID,20.1139,VALID,247,VALID,0.382422,
2011-02-04, 01:13:04,VALID,917.627,VALID,0,VALID,96.5734,VALID,0,VALID,20.0733,VALID,247,VALID,0.239844,
2011-02-04, 01:14:04,VALID,917.624,VALID,0,VALID,96.5353,VALID,0,VALID,20.0343,VALID,247,VALID,0.276953,
2011-02-04, 01:15:04,VALID,917.611,VALID,0,VALID,96.5658,VALID,0,VALID,20.0764,VALID,247,VALID,0.216797,
2011-02-04, 01:16:04,VALID,917.62,VALID,0,VALID,96.5658,VALID,0,VALID,20.0118,VALID,247,VALID,0.457422,
2011-02-04, 01:17:04,VALID,917.616,VALID,0,VALID,96.5506,VALID,0,VALID,19.9923,VALID,247,VALID,0.255859,
2011-02-04, 01:18:04,VALID,917.603,VALID,0,VALID,96.5734,VALID,0,VALID,20.0133,VALID,247,VALID,0.275,
2011-02-04, 01:19:04,VALID,917.589,VALID,0,VALID,96.5734,VALID,0,VALID,20.0133,VALID,247,VALID,0.396875,
2011-02-04, 01:20:04,VALID,917.622,VALID,0,VALID,96.6192,VALID,0,VALID,20.0538,VALID,247,VALID,0.187109,
2011-02-04, 01:21:04,VALID,917.569,VALID,0,VALID,96.6497,VALID,0,VALID,20.0733,VALID,247,VALID,0.159375,
2011-02-04, 01:22:04,VALID,917.588,VALID,0,VALID,96.6344,VALID,0,VALID,20.0538,VALID,247,VALID,0,
2011-02-04, 01:23:04,VALID,917.563,VALID,0,VALID,96.6268,VALID,0,VALID,20.0523,VALID,247,VALID,0,
2011-02-04, 01:24:04,VALID,917.587,VALID,0,VALID,96.6268,VALID,0,VALID,20.0928,VALID,247,VALID,0.332812,
2011-02-04, 01:25:04,VALID,917.564,VALID,0,VALID,96.6115,VALID,0,VALID,20.0733,VALID,247,VALID,0.383203,
2011-02-04, 01:26:04,VALID,917.551,VALID,0,VALID,96.5887,VALID,0,VALID,20.0538,VALID,247,VALID,0.107813,
2011-02-04, 01:27:04,VALID,917.567,VALID,0,VALID,96.5963,VALID,0,VALID,20.0538,VALID,247,VALID,0,
2011-02-04, 01:28:04,VALID,917.562,VALID,0,VALID,96.6268,VALID,0,VALID,20.0928,VALID,247,VALID,0,
2011-02-04, 01:29:04,VALID,917.555,VALID,0,VALID,96.6268,VALID,0.107441,VALID,20.0718,VALID,247,VALID,0,
2011-02-04, 01:30:04,VALID,917.572,VALID,0,VALID,96.6115,VALID,0,VALID,20.0928,VALID,247,VALID,0.242188,
2011-02-04, 01:31:04,VALID,917.552,VALID,0,VALID,96.5963,VALID,0,VALID,20.0523,VALID,247,VALID,0.125,
2011-02-04, 01:32:04,VALID,917.577,VALID,0,VALID,96.6497,VALID,0,VALID,20.0928,VALID,247,VALID,0,
2011-02-04, 01:33:04,VALID,917.573,VALID,0,VALID,96.6497,VALID,0,VALID,20.1123,VALID,247,VALID,0,
2011-02-04, 01:34:04,VALID,917.568,VALID,0,VALID,96.6649,VALID,0,VALID,20.1123,VALID,247,VALID,0,
2011-02-04, 01:35:04,VALID,917.556,VALID,0,VALID,96.6192,VALID,0,VALID,20.0913,VALID,247,VALID,0,
2011-02-04, 01:36:04,VALID,917.568,VALID,0,VALID,96.6649,VALID,0,VALID,20.1318,VALID,247,VALID,0.0527344,
2011-02-04, 01:37:04,VALID,917.554,VALID,0,VALID,96.6497,VALID,0,VALID,20.1318,VALID,247,VALID,0.433984,
2011-02-04, 01:38:04,VALID,917.534,VALID,0,VALID,96.6573,VALID,0,VALID,20.1303,VALID,247,VALID,0.201562,
2011-02-04, 01:39:04,VALID,917.541,VALID,0,VALID,96.7107,VALID,0,VALID,20.1708,VALID,247,VALID,0.292969,
2011-02-04, 01:40:04,VALID,917.523,VALID,0,VALID,96.6954,VALID,0,VALID,20.1708,VALID,247,VALID,0.203516,
2011-02-04, 01:41:04,VALID,917.542,VALID,0,VALID,96.6573,VALID,0,VALID,20.1513,VALID,247,VALID,0.589453,
2011-02-04, 01:42:04,VALID,917.505,VALID,0,VALID,96.6115,VALID,0,VALID,20.1318,VALID,247,VALID,0.434375,
2011-02-04, 01:43:04,VALID,917.515,VALID,0,VALID,96.6497,VALID,0,VALID,20.1123,VALID,247,VALID,0.693359,
2011-02-04, 01:44:04,VALID,917.48,VALID,0,VALID,96.6344,VALID,0,VALID,20.0718,VALID,247,VALID,0.862891,
2011-02-04, 01:45:04,VALID,917.496,VALID,0,VALID,96.6344,VALID,0,VALID,20.0733,VALID,247,VALID,0.446484,
2011-02-04, 01:46:04,VALID,917.483,VALID,0,VALID,96.6497,VALID,0,VALID,20.0328,VALID,247,VALID,0.567969,
2011-02-04, 01:47:04,VALID,917.436,VALID,0,VALID,96.6725,VALID,0,VALID,20.0328,VALID,247,VALID,0.390234,
2011-02-04, 01:48:04,VALID,917.444,VALID,0,VALID,96.6954,VALID,0,VALID,20.0523,VALID,247,VALID,0.34375,
2011-02-04, 01:49:04,VALID,917.416,VALID,0,VALID,96.6878,VALID,0,VALID,20.0523,VALID,247,VALID,0.441797,
2011-02-04, 01:50:04,VALID,917.404,VALID,0,VALID,96.6878,VALID,0,VALID,20.0733,VALID,247,VALID,0.292578,
2011-02-04, 01:51:04,VALID,917.354,VALID,0.2,VALID,96.703,VALID,0,VALID,20.0928,VALID,247,VALID,0.642969,
2011-02-04, 01:52:04,VALID,917.352,VALID,0,VALID,96.6649,VALID,0,VALID,20.0733,VALID,246,VALID,0.801562,
2011-02-04, 01:53:04,VALID,917.294,VALID,0,VALID,96.6802,VALID,0,VALID,20.0733,VALID,247,VALID,0.474609,
2011-02-04, 01:54:04,VALID,917.266,VALID,0,VALID,96.6802,VALID,0,VALID,20.0538,VALID,247,VALID,0.327734,
2011-02-04, 01:55:04,VALID,917.249,VALID,0,VALID,96.6802,VALID,0,VALID,20.0343,VALID,247,VALID,0.475781,
2011-02-04, 01:56:04,VALID,917.254,VALID,0,VALID,96.6954,VALID,0,VALID,20.0538,VALID,225,VALID,0.599219,
2011-02-04, 01:57:04,VALID,917.209,VALID,0,VALID,96.6725,VALID,0,VALID,20.0343,VALID,191,VALID,0.795703,
2011-02-04, 01:58:04,VALID,917.232,VALID,0,VALID,96.6573,VALID,0,VALID,19.9938,VALID,191,VALID,0.719141,
2011-02-04, 01:59:04,VALID,917.249,VALID,0,VALID,96.6573,VALID,0,VALID,20.0148,VALID,191,VALID,0.639844,
2011-02-04, 02:00:04,VALID,917.239,VALID,0,VALID,96.6878,VALID,0,VALID,19.9953,VALID,191,VALID,0.405859,
2011-02-04, 02:01:04,VALID,917.255,VALID,0,VALID,96.6573,VALID,0,VALID,19.9953,VALID,191,VALID,0.260938,
2011-02-04, 02:02:04,VALID,917.253,VALID,0,VALID,96.6649,VALID,0,VALID,19.9743,VALID,191,VALID,0.575391,
2011-02-04, 02:03:04,VALID,917.255,VALID,0,VALID,96.642,VALID,0,VALID,19.9743,VALID,191,VALID,0.382813,
2011-02-04, 02:04:04,VALID,917.244,VALID,0,VALID,96.6649,VALID,0,VALID,19.9938,VALID,190,VALID,0.602344,
2011-02-04, 02:05:04,VALID,917.268,VALID,0,VALID,96.6802,VALID,0,VALID,19.9953,VALID,191,VALID,0.361328,
2011-02-04, 02:06:04,VALID,917.258,VALID,0,VALID,96.6954,VALID,0,VALID,20.0148,VALID,190,VALID,0.040625,
2011-02-04, 02:07:04,VALID,917.272,VALID,0,VALID,96.6725,VALID,0,VALID,20.0148,VALID,191,VALID,0.135156,
2011-02-04, 02:08:04,VALID,917.264,VALID,0,VALID,96.6725,VALID,0,VALID,20.0133,VALID,191,VALID,0,
2011-02-04, 02:09:04,VALID,917.246,VALID,0,VALID,96.6802,VALID,0,VALID,20.0343,VALID,191,VALID,0.0519531,
2011-02-04, 02:10:04,VALID,917.22,VALID,0.2,VALID,96.6878,VALID,0.107441,VALID,20.0538,VALID,191,VALID,0,
2011-02-04, 02:11:04,VALID,917.195,VALID,0,VALID,96.6649,VALID,0,VALID,20.0343,VALID,191,VALID,0.413672,
2011-02-04, 02:12:04,VALID,917.193,VALID,0,VALID,96.6573,VALID,0,VALID,19.9518,VALID,191,VALID,0.653125,
2011-02-04, 02:13:04,VALID,917.155,VALID,0,VALID,96.642,VALID,0,VALID,19.9713,VALID,190,VALID,0.678906,
2011-02-04, 02:14:04,VALID,917.144,VALID,0.2,VALID,96.6573,VALID,0,VALID,20.0343,VALID,191,VALID,0.173828,
2011-02-04, 02:15:04,VALID,917.102,VALID,0,VALID,96.6878,VALID,0,VALID,19.9923,VALID,191,VALID,0.25625,
2011-02-04, 02:16:04,VALID,917.104,VALID,0,VALID,96.6878,VALID,0,VALID,20.0328,VALID,190,VALID,0.040625,
2011-02-04, 02:17:04,VALID,917.115,VALID,0,VALID,96.6344,VALID,0,VALID,19.9938,VALID,191,VALID,0.263672,
2011-02-04, 02:18:04,VALID,917.116,VALID,0,VALID,96.6268,VALID,0,VALID,19.9938,VALID,191,VALID,0.295703,
2011-02-04, 02:19:04,VALID,917.116,VALID,0,VALID,96.6268,VALID,0,VALID,19.9953,VALID,190,VALID,0.0425781,
2011-02-04, 02:20:04,VALID,917.117,VALID,0,VALID,96.6725,VALID,0,VALID,19.9743,VALID,190,VALID,0,
2011-02-04, 02:21:04,VALID,917.119,VALID,0.2,VALID,96.6344,VALID,0,VALID,19.9728,VALID,191,VALID,0.408984,
2011-02-04, 02:22:04,VALID,917.134,VALID,0,VALID,96.6344,VALID,0,VALID,19.9953,VALID,191,VALID,0.000390625,
2011-02-04, 02:23:04,VALID,917.102,VALID,0,VALID,96.6039,VALID,0,VALID,19.9743,VALID,191,VALID,0.207031,
2011-02-04, 02:24:04,VALID,917.119,VALID,0,VALID,96.6115,VALID,0,VALID,19.9548,VALID,190,VALID,0.0980469,
2011-02-04, 02:25:04,VALID,917.101,VALID,0,VALID,96.5963,VALID,0.107441,VALID,19.9743,VALID,191,VALID,0,
2011-02-04, 02:26:04,VALID,917.095,VALID,0,VALID,96.5963,VALID,0,VALID,19.9953,VALID,191,VALID,0,
2011-02-04, 02:27:04,VALID,917.088,VALID,0,VALID,96.6039,VALID,0,VALID,19.9533,VALID,190,VALID,0,
2011-02-04, 02:28:04,VALID,917.067,VALID,0,VALID,96.5963,VALID,0,VALID,19.9338,VALID,190,VALID,0.123047,
2011-02-04, 02:29:04,VALID,917.065,VALID,0,VALID,96.6192,VALID,0,VALID,19.9743,VALID,191,VALID,0.302734,
2011-02-04, 02:30:04,VALID,917.048,VALID,0,VALID,96.5887,VALID,0,VALID,19.9533,VALID,191,VALID,0.191016,
2011-02-04, 02:31:04,VALID,917.03,VALID,0,VALID,96.6039,VALID,0,VALID,19.9743,VALID,191,VALID,0.224609,
2011-02-04, 02:32:04,VALID,917.032,VALID,0,VALID,96.5734,VALID,0,VALID,19.9938,VALID,190,VALID,0.378906,
2011-02-04, 02:33:04,VALID,917.032,VALID,0,VALID,96.6115,VALID,0,VALID,19.9938,VALID,190,VALID,0,
2011-02-04, 02:34:04,VALID,917.024,VALID,0,VALID,96.6115,VALID,0,VALID,20.0133,VALID,190,VALID,0.0898438,
2011-02-04, 02:35:04,VALID,917.039,VALID,0,VALID,96.5963,VALID,0,VALID,19.9938,VALID,191,VALID,0.369531,
2011-02-04, 02:36:04,VALID,917.047,VALID,0,VALID,96.6192,VALID,0,VALID,20.0343,VALID,190,VALID,0.284766,
2011-02-04, 02:37:04,VALID,917.041,VALID,0,VALID,96.6268,VALID,0,VALID,20.0133,VALID,191,VALID,0.5,
2011-02-04, 02:38:04,VALID,917.02,VALID,0.2,VALID,96.5506,VALID,0,VALID,19.9743,VALID,190,VALID,0.279297,
2011-02-04, 02:39:04,VALID,917.022,VALID,0,VALID,96.5658,VALID,0,VALID,19.9548,VALID,191,VALID,0.421484,
2011-02-04, 02:40:04,VALID,917.023,VALID,0,VALID,96.5506,VALID,0,VALID,19.9563,VALID,191,VALID,0.425391,
2011-02-04, 02:41:04,VALID,916.997,VALID,0,VALID,96.5582,VALID,0,VALID,19.9353,VALID,191,VALID,0.00585938,
2011-02-04, 02:42:04,VALID,917.006,VALID,0,VALID,96.5277,VALID,0,VALID,19.9158,VALID,191,VALID,0.409766,
2011-02-04, 02:43:04,VALID,916.999,VALID,0,VALID,96.5582,VALID,0,VALID,19.9158,VALID,191,VALID,0.240234,
2011-02-04, 02:44:04,VALID,917.012,VALID,0,VALID,96.5506,VALID,0,VALID,19.9368,VALID,191,VALID,0.368359,
2011-02-04, 02:45:04,VALID,917.003,VALID,0,VALID,96.5811,VALID,0,VALID,19.9563,VALID,190,VALID,0.245703,
2011-02-04, 02:46:04,VALID,917.003,VALID,0,VALID,96.5582,VALID,0,VALID,19.9758,VALID,190,VALID,0.321094,
2011-02-04, 02:47:04,VALID,916.974,VALID,0,VALID,96.5506,VALID,0,VALID,19.9563,VALID,191,VALID,0.400781,
2011-02-04, 02:48:04,VALID,917,VALID,0,VALID,96.5277,VALID,0,VALID,19.9353,VALID,191,VALID,0.375391,
2011-02-04, 02:49:04,VALID,917.003,VALID,0,VALID,96.5277,VALID,0,VALID,19.9563,VALID,190,VALID,0.260156,
2011-02-04, 02:50:04,VALID,916.982,VALID,0,VALID,96.5506,VALID,0,VALID,19.9563,VALID,191,VALID,0.214062,
2011-02-04, 02:51:04,VALID,916.964,VALID,0,VALID,96.5429,VALID,0,VALID,19.9548,VALID,191,VALID,0.0328125,
2011-02-04, 02:52:04,VALID,916.997,VALID,0,VALID,96.5201,VALID,0,VALID,19.9563,VALID,191,VALID,0,
2011-02-04, 02:53:04,VALID,916.979,VALID,0,VALID,96.5048,VALID,0,VALID,19.9353,VALID,191,VALID,0,
2011-02-04, 02:54:04,VALID,916.955,VALID,0,VALID,96.5048,VALID,0,VALID,19.9353,VALID,191,VALID,0.0582031,
2011-02-04, 02:55:04,VALID,916.969,VALID,0,VALID,96.4896,VALID,0,VALID,19.9368,VALID,191,VALID,0.300391,
2011-02-04, 02:56:04,VALID,916.968,VALID,0,VALID,96.4819,VALID,0,VALID,19.9368,VALID,191,VALID,0.308984,
2011-02-04, 02:57:04,VALID,916.991,VALID,0,VALID,96.4819,VALID,0,VALID,19.9368,VALID,190,VALID,0.307813,
2011-02-04, 02:58:04,VALID,916.99,VALID,0,VALID,96.5506,VALID,0,VALID,19.9353,VALID,191,VALID,0.323438,
2011-02-04, 02:59:04,VALID,916.998,VALID,0,VALID,96.5277,VALID,0,VALID,19.9353,VALID,191,VALID,0.126953,
2011-02-04, 03:00:04,VALID,916.966,VALID,0,VALID,96.5277,VALID,0,VALID,19.9563,VALID,191,VALID,0.148047,
2011-02-04, 03:01:04,VALID,916.993,VALID,0,VALID,96.5353,VALID,0,VALID,19.9563,VALID,191,VALID,0.00195313,
2011-02-04, 03:02:04,VALID,916.977,VALID,0,VALID,96.5658,VALID,0,VALID,19.9758,VALID,191,VALID,0.269531,
2011-02-04, 03:03:04,VALID,917.002,VALID,0,VALID,96.4819,VALID,0.107441,VALID,19.9353,VALID,191,VALID,0,
2011-02-04, 03:04:04,VALID,916.982,VALID,0.2,VALID,96.5277,VALID,0,VALID,19.9563,VALID,190,VALID,0,
2011-02-04, 03:05:04,VALID,916.996,VALID,0.2,VALID,96.5201,VALID,0,VALID,19.9353,VALID,191,VALID,0,
2011-02-04, 03:06:04,VALID,916.943,VALID,0.2,VALID,96.5277,VALID,0,VALID,19.9758,VALID,191,VALID,0,
2011-02-04, 03:07:04,VALID,916.94,VALID,0,VALID,96.5124,VALID,0,VALID,19.9353,VALID,191,VALID,0.144531,
2011-02-04, 03:08:04,VALID,916.913,VALID,0,VALID,96.5201,VALID,0,VALID,19.9563,VALID,191,VALID,0.290234,
2011-02-04, 03:09:04,VALID,916.908,VALID,0.2,VALID,96.5429,VALID,0,VALID,19.9353,VALID,191,VALID,0.000390625,
2011-02-04, 03:10:04,VALID,916.913,VALID,0,VALID,96.4972,VALID,0,VALID,19.9158,VALID,191,VALID,0,
2011-02-04, 03:11:04,VALID,916.91,VALID,0,VALID,96.5201,VALID,0,VALID,19.9158,VALID,191,VALID,0,
2011-02-04, 03:12:04,VALID,916.896,VALID,0,VALID,96.5582,VALID,0,VALID,19.9368,VALID,191,VALID,0,
2011-02-04, 03:13:04,VALID,916.886,VALID,0,VALID,96.5658,VALID,0.107441,VALID,19.9368,VALID,191,VALID,0,
2011-02-04, 03:14:04,VALID,916.875,VALID,0,VALID,96.5658,VALID,0,VALID,19.9548,VALID,191,VALID,0,
2011-02-04, 03:15:04,VALID,916.876,VALID,0,VALID,96.5734,VALID,0,VALID,19.9548,VALID,191,VALID,0,
2011-02-04, 03:16:04,VALID,916.884,VALID,0,VALID,96.5353,VALID,0,VALID,19.9563,VALID,191,VALID,0.162109,
2011-02-04, 03:17:04,VALID,916.88,VALID,0,VALID,96.5582,VALID,0,VALID,19.9368,VALID,191,VALID,0.00585938,
2011-02-04, 03:18:04,VALID,916.874,VALID,0,VALID,96.5658,VALID,0,VALID,19.9353,VALID,191,VALID,0,
2011-02-04, 03:19:04,VALID,916.846,VALID,0,VALID,96.5811,VALID,0,VALID,19.9563,VALID,191,VALID,0,
2011-02-04, 03:20:04,VALID,916.843,VALID,0,VALID,96.5429,VALID,0,VALID,19.9368,VALID,190,VALID,0.0570313,
2011-02-04, 03:21:04,VALID,916.814,VALID,0,VALID,96.5429,VALID,0,VALID,19.9368,VALID,191,VALID,0.420312,
2011-02-04, 03:22:04,VALID,916.812,VALID,0.2,VALID,96.5124,VALID,0.107441,VALID,19.8963,VALID,191,VALID,0.358594,
2011-02-04, 03:23:04,VALID,916.79,VALID,0,VALID,96.5277,VALID,0,VALID,19.9173,VALID,191,VALID,0.413672,
2011-02-04, 03:24:04,VALID,916.804,VALID,0.2,VALID,96.5124,VALID,0,VALID,19.8768,VALID,191,VALID,0.480859,
2011-02-04, 03:25:04,VALID,916.802,VALID,0.2,VALID,96.5734,VALID,0,VALID,19.8768,VALID,191,VALID,0.0464844,
2011-02-04, 03:26:04,VALID,916.811,VALID,0,VALID,96.5582,VALID,0,VALID,19.8963,VALID,191,VALID,0.460547,
2011-02-04, 03:27:04,VALID,916.784,VALID,0,VALID,96.5811,VALID,0,VALID,19.8768,VALID,191,VALID,0.0425781,
2011-02-04, 03:28:04,VALID,916.783,VALID,0.2,VALID,96.6344,VALID,0,VALID,19.9173,VALID,191,VALID,0,
2011-02-04, 03:29:04,VALID,916.775,VALID,0,VALID,96.6268,VALID,0,VALID,19.9173,VALID,190,VALID,0.24375,
2011-02-04, 03:30:04,VALID,916.784,VALID,0,VALID,96.5887,VALID,0,VALID,19.8963,VALID,191,VALID,0.111328,
2011-02-04, 03:31:04,VALID,916.781,VALID,0.2,VALID,96.6497,VALID,0,VALID,19.8963,VALID,190,VALID,0,
2011-02-04, 03:32:04,VALID,916.754,VALID,0,VALID,96.6573,VALID,0,VALID,19.9173,VALID,191,VALID,0,
2011-02-04, 03:33:04,VALID,916.738,VALID,0.2,VALID,96.6192,VALID,0.107441,VALID,19.9173,VALID,190,VALID,0.557422,
2011-02-04, 03:34:04,VALID,916.792,VALID,0,VALID,96.6192,VALID,0,VALID,19.8978,VALID,191,VALID,0.512891,
2011-02-04, 03:35:04,VALID,916.801,VALID,0.2,VALID,96.7259,VALID,0.107441,VALID,19.9158,VALID,191,VALID,0.463672,
2011-02-04, 03:36:04,VALID,916.758,VALID,0,VALID,96.7183,VALID,0,VALID,19.9158,VALID,191,VALID,0.195703,
2011-02-04, 03:37:04,VALID,916.741,VALID,0.2,VALID,96.7488,VALID,0,VALID,19.9758,VALID,191,VALID,0,
2011-02-04, 03:38:04,VALID,916.721,VALID,0,VALID,96.7259,VALID,0,VALID,19.9758,VALID,191,VALID,0,
2011-02-04, 03:39:04,VALID,916.727,VALID,0.2,VALID,96.7107,VALID,0,VALID,19.9563,VALID,191,VALID,0.343359,
2011-02-04, 03:40:04,VALID,916.709,VALID,0,VALID,96.703,VALID,0,VALID,19.9563,VALID,191,VALID,0.339453,
2011-02-04, 03:41:04,VALID,916.71,VALID,0.2,VALID,96.7335,VALID,0,VALID,19.9368,VALID,190,VALID,0.145313,
2011-02-04, 03:42:04,VALID,916.696,VALID,0.2,VALID,96.7259,VALID,0,VALID,19.9158,VALID,191,VALID,0.120703,
2011-02-04, 03:43:04,VALID,916.701,VALID,0.2,VALID,96.7259,VALID,0,VALID,19.8963,VALID,191,VALID,0.136719,
2011-02-04, 03:44:04,VALID,916.666,VALID,0.2,VALID,96.7488,VALID,0,VALID,19.8963,VALID,191,VALID,0.276563,
2011-02-04, 03:45:04,VALID,916.649,VALID,0.2,VALID,96.7564,VALID,0,VALID,19.9173,VALID,191,VALID,0.260938,
2011-02-04, 03:46:04,VALID,916.68,VALID,0.2,VALID,96.7411,VALID,0,VALID,19.8978,VALID,191,VALID,0.185547,